Date String (YYYY-MM-DD hh:mm:ss) UTC,Instrument flags,absolute air pressure of the measurement (hPa),sample flow rate (lpm),inlet stack bypass flow (lpm),air temperature of the measurement (°C),ambient temperature measured by the external sensor (°C),aerosol sample conditioner tube jacket temperature (°C),OPC LED temperature (°C),internal box temperature (°C),relative humidity of the measurement (%),span deviation,mass concentration of particles derived from Lorenz-Mie calculation of OPC scattering (μg/m³),mass concentration of particles derived from Lorenz-Mie calculation of OPC scattering (μg/m³),mass concentration of particles derived from Lorenz-Mie calculation of OPC scattering (μg/m³)
DateTimeUTC,F1_M11,P_M11,Q1_M11,Q2_M11,T1_M11,T2_M11,T3_M11,T4_M11,T5_M11,U1_M11,ZSPAN_M11,X0_M11,X2_M11,X1_M11
2023-06-14 18:00:00,SystemResetWarning,0827.0,4.99,000.00,029.5,026.2,000.0,038.0,030.8,25.6,0000.0,0008.57,0004.08,0003.46
2023-06-14 18:01:00,SystemResetWarning,0826.9,5.00,000.00,029.5,026.6,000.0,038.0,030.8,26.1,0000.0,0008.38,0004.09,0003.47
2023-06-14 18:02:00,SystemResetWarning,0827.0,5.01,000.00,029.5,026.9,000.0,038.0,030.9,26.4,0000.0,0008.37,0004.10,0003.50
2023-06-14 18:03:00,SystemResetWarning,0827.0,5.00,000.00,029.5,027.1,000.0,038.0,030.9,26.0,0000.0,0008.17,0004.12,0003.55
2023-06-14 18:04:00,SystemResetWarning,0826.9,4.99,000.00,029.5,027.4,000.0,038.0,031.0,25.7,0000.0,0008.40,0004.15,0003.58
2023-06-14 18:05:00,SystemResetWarning,0826.9,4.99,000.00,029.5,027.6,000.0,038.0,031.0,27.0,0000.0,0008.58,0004.16,0003.59
2023-06-14 18:06:00,SystemResetWarning,0826.9,5.00,000.00,029.5,027.7,000.0,038.0,031.0,27.4,0000.0,0008.50,0004.15,0003.60
2023-06-14 18:07:00,SystemResetWarning,0826.9,5.00,000.00,029.5,027.8,000.0,038.0,031.0,27.8,0000.0,0008.35,0004.14,0003.62
2023-06-14 18:08:00,SystemResetWarning,0827.0,5.00,000.00,029.5,027.9,000.0,038.0,031.1,29.0,0000.0,0008.01,0004.14,0003.62
2023-06-14 18:09:00,SystemResetWarning,0827.0,5.00,000.00,029.5,028.0,000.0,038.0,031.1,27.4,0000.0,0008.23,0004.18,0003.61
2023-06-14 18:10:00,SystemResetWarning,0826.9,5.00,000.00,029.5,028.1,000.0,038.0,031.2,26.6,0000.0,0008.96,0004.20,0003.62
2023-06-14 18:11:00,SystemResetWarning,0826.9,5.00,000.00,029.5,028.1,000.0,038.1,031.2,27.8,0000.0,0009.04,0004.20,0003.62
2023-06-14 18:12:00,SystemResetWarning,0826.9,5.00,000.00,029.5,028.0,000.0,038.1,031.0,26.4,0000.0,0009.05,0004.21,0003.63
2023-06-14 18:13:00,SystemResetWarning,0826.9,5.00,000.00,029.5,027.9,000.0,038.1,031.0,26.1,0000.0,0009.34,0004.21,0003.61
2023-06-14 18:14:00,SystemResetWarning,0826.9,5.00,000.00,029.5,027.9,000.0,038.1,031.0,26.7,0000.0,0009.39,0004.19,0003.59
2023-06-14 18:15:00,SystemResetWarning,0826.9,5.00,000.00,029.5,028.0,000.0,038.1,031.1,28.1,0000.0,0009.23,0004.15,0003.56
2023-06-14 18:16:00,SystemResetWarning,0826.9,5.00,000.00,029.5,028.0,000.0,038.1,031.0,27.0,0000.0,0009.08,0004.16,0003.56
2023-06-14 18:17:00,SystemResetWarning,0826.9,5.00,000.00,029.5,028.0,000.0,038.1,031.1,27.3,0000.0,0009.33,0004.17,0003.56
2023-06-14 18:18:00,SystemResetWarning,0826.9,4.99,000.00,029.5,026.8,000.0,038.0,031.1,26.9,0000.0,0009.53,0004.19,0003.56
2023-06-14 18:19:00,SystemResetWarning,0826.9,5.01,000.00,029.5,025.5,000.0,038.0,031.1,26.0,0000.0,0010.22,0004.21,0003.56
2023-06-14 18:20:00,SystemResetWarning,0826.9,5.01,000.00,029.5,025.6,000.0,038.0,031.0,25.9,0000.0,0010.81,0004.19,0003.55
2023-06-14 18:21:00,SystemResetWarning,0826.9,5.01,000.00,029.4,025.9,000.0,038.0,030.9,25.9,0000.0,0009.95,0004.15,0003.55
2023-06-14 18:22:00,SystemResetWarning,0826.7,5.00,000.00,029.4,026.3,000.0,038.0,030.9,25.6,0000.0,0009.86,0004.18,0003.55
2023-06-14 18:23:00,SystemResetWarning,0826.8,5.00,000.00,029.4,026.6,000.0,038.0,030.9,27.4,0000.0,0009.93,0004.17,0003.54
2023-06-14 18:24:00,SystemResetWarning,0826.8,4.99,000.00,029.4,027.0,000.0,038.0,031.0,27.7,0000.0,0010.27,0004.17,0003.52
2023-06-14 18:25:00,SystemResetWarning,0826.8,5.02,000.00,029.4,027.2,000.0,038.0,031.0,27.6,0000.0,0010.53,0004.15,0003.51
2023-06-14 18:26:00,SystemResetWarning,0826.8,5.00,000.00,029.4,027.5,000.0,038.0,031.1,27.3,0000.0,0011.03,0004.14,0003.51
2023-06-14 18:27:00,SystemResetWarning,0826.8,5.00,000.00,029.4,027.7,000.0,038.0,031.1,28.6,0000.0,0010.93,0004.12,0003.49
2023-06-14 18:28:00,SystemResetWarning,0826.8,5.00,000.00,029.4,027.8,000.0,038.0,031.1,27.5,0000.0,0010.75,0004.11,0003.48
2023-06-14 18:29:00,SystemResetWarning,0826.8,5.00,000.00,029.5,027.9,000.0,038.0,031.1,27.1,0000.0,0010.59,0004.10,0003.48
2023-06-14 18:30:00,SystemResetWarning,0826.7,5.00,000.00,029.5,028.0,000.0,038.0,031.2,26.7,0000.0,0010.13,0004.13,0003.51
2023-06-14 18:31:00,SystemResetWarning,0826.7,5.00,000.00,029.5,028.1,000.0,038.0,031.2,26.9,0000.0,0009.28,0004.15,0003.54
2023-06-14 18:32:00,SystemResetWarning,0826.6,4.99,000.00,029.5,028.1,000.0,038.0,031.2,27.3,0000.6,0009.60,0004.18,0003.55
2023-06-14 18:33:00,SystemResetWarning,0826.6,4.99,000.00,029.5,026.7,000.0,038.0,031.2,26.5,0000.0,0009.69,0004.19,0003.57
2023-06-14 18:34:00,SystemResetWarning,0826.6,5.01,000.00,029.5,025.4,000.0,037.9,031.1,26.9,0000.0,0010.12,0004.22,0003.60
2023-06-14 18:35:00,SystemResetWarning,0826.6,5.01,000.00,029.5,025.5,000.0,037.9,031.0,26.0,0000.0,0010.23,0004.26,0003.64
2023-06-14 18:36:00,SystemResetWarning,0826.6,5.00,000.00,029.4,025.9,000.0,037.9,030.9,26.7,0000.0,0010.40,0004.30,0003.66
2023-06-14 18:37:00,SystemResetWarning,0826.6,5.00,000.00,029.4,026.2,000.0,037.9,030.9,26.6,0000.0,0009.90,0004.36,0003.68
2023-06-14 18:38:00,SystemResetWarning,0826.6,5.00,000.00,029.4,026.6,000.0,037.9,030.9,26.7,0000.0,0009.91,0004.40,0003.71
2023-06-14 18:39:00,SystemResetWarning,0826.6,5.00,000.00,029.4,026.9,000.0,037.9,031.0,26.9,0000.0,0009.99,0004.40,0003.71
2023-06-14 18:40:00,SystemResetWarning,0826.6,4.99,000.00,029.4,027.2,000.0,037.9,031.0,26.6,0000.0,0010.97,0004.42,0003.71
2023-06-14 18:41:00,SystemResetWarning,0826.6,5.00,000.00,029.4,027.4,000.0,038.0,031.0,25.2,0000.0,0011.23,0004.42,0003.71
2023-06-14 18:42:00,SystemResetWarning,0826.6,5.00,000.00,029.4,027.6,000.0,038.0,031.0,25.5,0000.0,0011.64,0004.41,0003.69
2023-06-14 18:43:00,SystemResetWarning,0826.6,5.01,000.00,029.4,027.7,000.0,038.0,031.0,26.1,0000.0,0011.72,0004.39,0003.69
2023-06-14 18:44:00,SystemResetWarning,0826.6,5.00,000.00,029.4,027.8,000.0,038.0,031.0,26.9,0000.0,0011.78,0004.35,0003.66
2023-06-14 18:45:00,SystemResetWarning,0826.6,5.00,000.00,029.4,028.0,000.0,038.0,031.1,26.2,0000.0,0011.82,0004.32,0003.64
2023-06-14 18:46:00,SystemResetWarning,0826.6,5.00,000.00,029.4,028.0,000.0,038.0,031.1,25.5,0000.0,0011.37,0004.24,0003.61
2023-06-14 18:47:00,SystemResetWarning,0826.6,4.99,000.00,029.5,027.4,000.0,038.0,031.2,25.1,0000.0,0011.34,0004.19,0003.57
2023-06-14 18:48:00,SystemResetWarning,0826.6,5.01,000.00,029.5,025.6,000.0,037.9,031.1,25.9,0000.0,0011.51,0004.13,0003.56
2023-06-14 18:49:00,SystemResetWarning,0826.6,5.02,000.00,029.5,025.4,000.0,037.9,031.0,26.2,0000.0,0011.44,0004.09,0003.53
2023-06-14 18:50:00,SystemResetWarning,0826.6,5.00,000.00,029.4,025.7,000.0,037.9,030.9,25.2,0000.0,0011.61,0004.09,0003.52
2023-06-14 18:51:00,SystemResetWarning,0826.6,5.00,000.00,029.4,026.1,000.0,037.9,030.9,24.8,0000.0,0010.57,0004.02,0003.50
2023-06-14 18:52:00,SystemResetWarning,0826.5,4.99,000.00,029.4,026.5,000.0,037.9,031.0,25.7,0000.0,0010.86,0003.99,0003.47
2023-06-14 18:53:00,SystemResetWarning,0826.5,4.99,000.00,029.4,026.8,000.0,037.9,031.0,26.5,0000.0,0011.06,0004.03,0003.46
2023-06-14 18:54:00,SystemResetWarning,0826.5,5.02,000.00,029.4,027.1,000.0,037.9,031.0,25.8,0000.0,0010.97,0004.06,0003.45
2023-06-14 18:55:00,SystemResetWarning,0826.5,4.99,000.00,029.4,027.4,000.0,037.9,031.0,25.1,0000.0,0010.92,0004.07,0003.45
2023-06-14 18:56:00,SystemResetWarning,0826.5,4.99,000.00,029.5,027.6,000.0,037.9,031.1,26.1,0000.0,0010.41,0004.10,0003.45
2023-06-14 18:57:00,SystemResetWarning,0826.5,5.00,000.00,029.5,027.8,000.0,038.0,031.1,25.4,0000.0,0010.42,0004.17,0003.46
2023-06-14 18:58:00,SystemResetWarning,0826.6,5.01,000.00,029.5,028.0,000.0,038.0,031.2,25.9,0000.0,0010.23,0004.19,0003.45
2023-06-14 18:59:00,SystemResetWarning,0826.5,4.99,000.00,029.6,026.9,000.0,037.9,031.2,25.1,0000.0,0010.22,0004.22,0003.44
